Location: Peebles
(55.6412°N, 3.1714°W)
Time: 13:36:46
(UTC+01:00)

FLOCK 4S 26 - Pass Details

Date: 08 July 2022
Orbit: 498 x 512 km, 97.4° (Epoch: 17 August)

Event Time Altitude Azimuth Distance (km) Brightness Sun altitude
Rises 22:54:20 0° 199° (SSW) 2,632 ? -6.2°
Reaches altitude 10° 22:56:46 10° 215° (SW) 1,749 ? -6.4°
Maximum altitude 22:59:47 22° 268° (W) 1,157 ? -6.6°
Drops below altitude 10° 23:02:49 10° 321° (NW) 1,757 ? -6.9°
Sets 23:05:17 0° 337° (NNW) 2,647 ? -7.0°
